Weather History for Findlay, OH

Change the Weather History Date:

Sunday, June 16, 2013

  Actual Average Record
Temperature  
Mean Temperature 74 °F -  
Max Temperature 82 °F 77 °F 97 °F (1952)
Min Temperature 66 °F 59 °F 41 °F (1961)
Cooling Degree Days 8    
Growing Degree Days 24 (Base 50)    
Moisture  
Dew Point 64 °F    
Average Humidity 75    
Maximum Humidity 88    
Minimum Humidity 58    
Precipitation  
Precipitation 0.16 in - - ()
Sea Level Pressure  
Sea Level Pressure 29.89 in    
Wind  
Wind Speed 12 mph (WSW)    
Max Wind Speed 21 mph    
Max Gust Speed 29 mph    
Visibility 9 miles    
Events Rain    
Averages and records for this station are not official NWS values.
T = Trace of Precipitation, MM = Missing Value Source: NWS Daily Summary

Daily Weather History Graph

Daily Weather History Graph

Search for Another Location

Airport:

Trip Planner

Search our weather history database for the weather conditions in past years. The results will help you decide how hot, cold, wet, or windy it might be!

Date:

Astronomy

Jun. 16, 2013 Rise Set
Actual Time 6:01 AM EDT 9:09 PM EDT
Civil Twilight 5:28 AM EDT 9:42 PM EDT
Nautical Twilight 4:45 AM EDT 10:25 PM EDT
Astronomical Twilight 3:54 AM EDT 11:16 PM EDT
Moon 1:40 PM EDT (6/16) 1:10 AM EDT (6/16)
Length of Visible Light 16h 14m
Length of Day
15h 07m
Waxing Crescent, 49% of the Moon is Illuminated
Jun 16
Waxing Crescent
Jun 16
First Quarter
Jun 23
Full
Jun 30
Last Quarter
Jul 8
New

Hourly Weather History & Observations

Time (EDT) Temp. Heat Index Dew Point Humidity Pressure Visibility Wind Dir Wind Speed Gust Speed Precip Events Conditions
12:53 AM 68.0 °F - 62.1 °F 81% 29.91 in 10.0 mi SSE 6.9 mph - N/A   Overcast
1:53 AM 66.9 °F - 62.1 °F 84% 29.90 in 9.0 mi SSE 8.1 mph - N/A   Partly Cloudy
2:53 AM 66.0 °F - 62.1 °F 87% 29.87 in 7.0 mi South 8.1 mph - N/A   Scattered Clouds
3:53 AM 69.1 °F - 62.1 °F 78% 29.86 in 10.0 mi SSW 11.5 mph - N/A   Mostly Cloudy
4:53 AM 70.0 °F - 62.1 °F 76% 29.89 in 9.0 mi WSW 19.6 mph 25.3 mph 0.00 in   Overcast
5:00 AM 69.8 °F - 64.4 °F 83% 29.92 in 4.0 mi West 20.7 mph 28.8 mph 0.05 in Rain Rain
5:19 AM 68.0 °F - 64.4 °F 88% 29.93 in 4.0 mi West 17.3 mph 25.3 mph 0.09 in Rain Rain
5:53 AM 68.0 °F - 64.0 °F 87% 29.90 in 10.0 mi SW 9.2 mph - 0.14 in Rain Light Rain
6:53 AM 68.0 °F - 64.0 °F 87% 29.88 in 10.0 mi WSW 9.2 mph - 0.01 in   Mostly Cloudy
7:53 AM 69.1 °F - 64.0 °F 84% 29.86 in 10.0 mi SW 11.5 mph - N/A   Mostly Cloudy
8:53 AM 69.1 °F - 64.0 °F 84% 29.88 in 10.0 mi SW 15.0 mph 19.6 mph 0.00 in Rain Light Rain
9:53 AM 70.0 °F - 64.0 °F 81% 29.89 in 10.0 mi WSW 10.4 mph - 0.01 in   Overcast
10:53 AM 71.1 °F - 64.9 °F 81% 29.89 in 10.0 mi WSW 16.1 mph 25.3 mph 0.00 in   Mostly Cloudy
11:53 AM 75.0 °F - 64.9 °F 71% 29.89 in 10.0 mi West 17.3 mph 26.5 mph N/A   Mostly Cloudy
12:17 PM 75.2 °F - 64.4 °F 69% 29.91 in 10.0 mi West 15.0 mph - N/A   Mostly Cloudy
12:53 PM 75.9 °F - 64.9 °F 69% 29.89 in 10.0 mi West 15.0 mph - N/A   Overcast
1:48 PM 77.0 °F - 66.2 °F 69% 29.91 in 10.0 mi WSW 12.7 mph 23.0 mph N/A   Overcast
1:53 PM 78.1 °F - 66.0 °F 66% 29.89 in 10.0 mi West 17.3 mph 21.9 mph N/A   Overcast
2:53 PM 78.1 °F - 66.0 °F 66% 29.88 in 10.0 mi West 18.4 mph - 0.00 in   Mostly Cloudy
3:53 PM 80.1 °F 81.9 °F 64.9 °F 60% 29.87 in 10.0 mi WSW 16.1 mph - N/A   Mostly Cloudy
4:53 PM 81.0 °F 82.7 °F 64.9 °F 58% 29.87 in 10.0 mi West 19.6 mph - N/A   Partly Cloudy
5:53 PM 81.0 °F 82.7 °F 64.9 °F 58% 29.87 in 10.0 mi West 17.3 mph 25.3 mph N/A   Clear
6:53 PM 80.1 °F 81.7 °F 64.0 °F 58% 29.87 in 10.0 mi West 17.3 mph - N/A   Partly Cloudy
7:53 PM 79.0 °F - 64.0 °F 60% 29.88 in 10.0 mi West 11.5 mph - N/A   Clear
8:53 PM 75.0 °F - 64.9 °F 71% 29.89 in 10.0 mi West 9.2 mph - N/A   Clear
9:53 PM 72.0 °F - 66.0 °F 81% 29.89 in 10.0 mi WSW 5.8 mph - N/A   Clear
10:53 PM 70.0 °F - 66.0 °F 87% 29.91 in 10.0 mi WSW 5.8 mph - N/A   Clear
11:53 PM 70.0 °F - 66.0 °F 87% 29.91 in 10.0 mi Calm Calm - N/A   Mostly Cloudy